Weather History for York, NE

Change the Weather History Date:

Saturday, January 5, 2013

  Actual Average Record
Temperature  
Mean Temperature 20 °F -  
Max Temperature 33 °F 32 °F 68 °F (2012)
Min Temperature 6 °F 11 °F -10 °F (1971)
Degree Days  
Heating Degree Days 46    
Moisture  
Dew Point 15 °F    
Average Humidity 80    
Maximum Humidity 92    
Minimum Humidity 60    
Precipitation  
Precipitation 0.00 in - - ()
Sea Level Pressure  
Sea Level Pressure 30.07 in    
Wind  
Wind Speed 10 mph (West)    
Max Wind Speed 22 mph    
Max Gust Speed 28 mph    
Visibility 10 miles    
Events      
Averages and records for this station are not official NWS values.
T = Trace of Precipitation, MM = Missing Value Source: NWS Daily Summary

Daily Weather History Graph

Daily Weather History Graph

Search for Another Location

Airport:

Trip Planner

Search our weather history database for the weather conditions in past years. The results will help you decide how hot, cold, wet, or windy it might be!

Date:

Astronomy

Jan. 05, 2013 Rise Set
Actual Time 7:55 AM CST 5:17 PM CST
Civil Twilight 7:24 AM CST 5:47 PM CST
Nautical Twilight 6:50 AM CST 6:22 PM CST
Astronomical Twilight 6:16 AM CST 6:55 PM CST
Moon 1:01 AM CST (1/5) 12:08 PM CST (1/5)
Length of Visible Light 10h 23m
Length of Day
9h 21m
Last Quarter, 44% of the Moon is Illuminated
Jan 5
Last Quarter
Jan 11
New
Jan 18
First Quarter
Jan 26
Full
Feb 3
Last Quarter

Hourly Weather History & Observations

Time (CST) Temp. Windchill Dew Point Humidity Pressure Visibility Wind Dir Wind Speed Gust Speed Precip Events Conditions
12:15 AM 12.2 °F -1.0 °F 6.8 °F 79% 30.09 in 10.0 mi SSW 10.4 mph - N/A   Clear
12:35 AM 12.2 °F -0.2 °F 6.8 °F 79% 30.08 in 10.0 mi SSW 9.2 mph - N/A   Clear
12:55 AM 10.4 °F -0.4 °F 6.8 °F 85% 30.07 in 10.0 mi SW 6.9 mph - N/A   Clear
1:15 AM 10.4 °F -2.4 °F 6.8 °F 85% 30.06 in 10.0 mi SSW 9.2 mph - N/A   Clear
1:35 AM 10.4 °F -3.3 °F 6.8 °F 85% 30.06 in 10.0 mi SSW 10.4 mph - N/A   Clear
1:55 AM 10.4 °F -4.1 °F 6.8 °F 85% 30.04 in 10.0 mi SSW 11.5 mph - N/A   Clear
2:15 AM 10.4 °F -1.5 °F 5.0 °F 79% 30.05 in 10.0 mi SW 8.1 mph - N/A   Clear
2:35 AM 10.4 °F -2.4 °F 6.8 °F 85% 30.04 in 10.0 mi SSW 9.2 mph - N/A   Clear
2:55 AM 10.4 °F -2.4 °F 6.8 °F 85% 30.04 in 10.0 mi SSW 9.2 mph - N/A   Clear
3:15 AM 10.4 °F -2.4 °F 6.8 °F 85% 30.04 in 10.0 mi South 9.2 mph - N/A   Clear
3:35 AM 10.4 °F -3.3 °F 6.8 °F 85% 30.04 in 10.0 mi SW 10.4 mph - N/A   Clear
3:55 AM 12.2 °F -1.0 °F 8.6 °F 85% 30.04 in 10.0 mi SSW 10.4 mph - N/A   Clear
4:15 AM 10.4 °F -3.3 °F 8.6 °F 92% 30.03 in 10.0 mi SSW 10.4 mph - N/A   Clear
4:35 AM 10.4 °F -3.3 °F 6.8 °F 85% 30.03 in 10.0 mi SSW 10.4 mph - N/A   Clear
4:55 AM 10.4 °F -3.3 °F 8.6 °F 92% 30.03 in 10.0 mi SW 10.4 mph - N/A   Clear
5:15 AM 10.4 °F -2.4 °F 6.8 °F 85% 30.03 in 10.0 mi SW 9.2 mph - N/A   Clear
5:35 AM 10.4 °F -1.5 °F 6.8 °F 85% 30.02 in 10.0 mi SW 8.1 mph - N/A   Clear
5:55 AM 8.6 °F 0.1 °F 6.8 °F 92% 30.01 in 10.0 mi SSW 4.6 mph - N/A   Clear
6:35 AM 8.6 °F -5.5 °F 6.8 °F 92% 30.01 in 10.0 mi SW 10.4 mph - N/A   Clear
6:55 AM 6.8 °F -6.9 °F 5.0 °F 92% 30.02 in 10.0 mi West 9.2 mph - N/A   Clear
7:15 AM 8.6 °F -4.7 °F 5.0 °F 85% 30.01 in 10.0 mi SW 9.2 mph - N/A   Clear
7:35 AM 8.6 °F -3.7 °F 5.0 °F 85% 30.00 in 10.0 mi SW 8.1 mph - N/A   Clear
7:55 AM 8.6 °F -3.7 °F 5.0 °F 85% 30.01 in 10.0 mi WSW 8.1 mph - N/A   Clear
8:15 AM 8.6 °F -3.7 °F 5.0 °F 85% 30.02 in 10.0 mi WSW 8.1 mph - N/A   Clear
8:35 AM 8.6 °F -5.5 °F 6.8 °F 92% 30.03 in 10.0 mi WSW 10.4 mph - N/A   Clear
8:55 AM 10.4 °F -3.3 °F 6.8 °F 85% 30.03 in 10.0 mi WSW 10.4 mph - N/A   Clear
9:15 AM 10.4 °F -0.4 °F 6.8 °F 85% 30.02 in 10.0 mi SW 6.9 mph - N/A   Clear
9:35 AM 10.4 °F -0.4 °F 6.8 °F 85% 30.04 in 10.0 mi WSW 6.9 mph - N/A   Clear
9:55 AM 12.2 °F 0.7 °F 6.8 °F 79% 30.03 in 10.0 mi WSW 8.1 mph - N/A   Clear
10:15 AM 12.2 °F 1.7 °F 6.8 °F 79% 30.04 in 10.0 mi WSW 6.9 mph - N/A   Clear
10:55 AM 15.8 °F 6.1 °F 8.6 °F 73% 30.04 in 10.0 mi SW 6.9 mph - N/A   Clear
11:15 AM 17.6 °F 9.3 °F 10.4 °F 73% 30.03 in 10.0 mi SW 5.8 mph - N/A   Clear
11:35 AM 17.6 °F 7.3 °F 14.0 °F 86% 30.04 in 10.0 mi West 8.1 mph - N/A   Clear
11:55 AM 21.2 °F 12.6 °F 15.8 °F 80% 30.04 in 10.0 mi West 6.9 mph - N/A   Clear
12:15 PM 23.0 °F 15.8 °F 15.8 °F 74% 30.02 in 10.0 mi West 5.8 mph - N/A   Clear
12:35 PM 24.8 °F 15.3 °F 17.6 °F 74% 30.02 in 10.0 mi WNW 9.2 mph - N/A   Clear
12:55 PM 26.6 °F 16.8 °F 19.4 °F 74% 30.01 in 10.0 mi WNW 10.4 mph - N/A   Clear
1:15 PM 28.4 °F 18.0 °F 21.2 °F 74% 30.02 in 10.0 mi NW 12.7 mph - N/A   Clear
1:35 PM 30.2 °F 21.9 °F 23.0 °F 75% 30.01 in 10.0 mi WNW 9.2 mph - N/A   Clear
1:55 PM 32.0 °F 23.6 °F 23.0 °F 69% 30.02 in 10.0 mi NW 10.4 mph - N/A   Clear
2:15 PM 32.0 °F 23.6 °F 24.8 °F 75% 30.02 in 10.0 mi WNW 10.4 mph - N/A   Clear
2:35 PM 32.0 °F 23.6 °F 26.6 °F 80% 30.02 in 10.0 mi WNW 10.4 mph - N/A   Clear
2:55 PM 32.0 °F 24.8 °F 26.6 °F 80% 30.02 in 10.0 mi NW 8.1 mph - N/A   Clear
3:15 PM 32.0 °F - 26.6 °F 80% 30.03 in 10.0 mi Calm Calm - N/A   Clear
3:35 PM 33.8 °F 27.0 °F 26.6 °F 75% 30.04 in 10.0 mi NW 8.1 mph - N/A   Clear
3:55 PM 33.8 °F 26.4 °F 26.6 °F 75% 30.04 in 10.0 mi WNW 9.2 mph - N/A   Clear
4:15 PM 32.0 °F 24.8 °F 26.6 °F 80% 30.05 in 10.0 mi West 8.1 mph - N/A   Clear
4:35 PM 32.0 °F - 26.6 °F 80% 30.06 in 10.0 mi Calm Calm - N/A   Clear
4:55 PM 30.2 °F - 24.8 °F 80% 30.06 in 10.0 mi Calm Calm - N/A   Clear
5:15 PM 32.0 °F 22.1 °F 24.8 °F 75% 30.07 in 10.0 mi NW 13.8 mph - N/A   Clear
5:35 PM 32.0 °F 23.6 °F 24.8 °F 75% 30.08 in 10.0 mi WNW 10.4 mph - N/A   Clear
5:55 PM 32.0 °F 23.0 °F 23.0 °F 69% 30.09 in 10.0 mi NW 11.5 mph - N/A   Clear
6:15 PM 28.4 °F 18.0 °F 23.0 °F 80% 30.10 in 10.0 mi NW 12.7 mph - N/A   Clear
6:35 PM 28.4 °F 19.1 °F 21.2 °F 74% 30.11 in 10.0 mi NW 10.4 mph - N/A   Clear
6:55 PM 32.0 °F 22.1 °F 23.0 °F 69% 30.12 in 10.0 mi NW 13.8 mph - N/A   Clear
7:15 PM 30.2 °F 18.9 °F 19.4 °F 64% 30.13 in 10.0 mi NW 16.1 mph - N/A   Clear
7:55 PM 32.0 °F 21.2 °F 19.4 °F 60% 30.14 in 10.0 mi NW 16.1 mph - N/A   Clear
8:15 PM 28.4 °F 16.6 °F 19.4 °F 69% 30.15 in 10.0 mi NW 16.1 mph - N/A   Clear
8:35 PM 28.4 °F 17.0 °F 19.4 °F 69% 30.15 in 10.0 mi NW 15.0 mph - N/A   Clear
8:55 PM 26.6 °F 15.2 °F 19.4 °F 74% 30.16 in 10.0 mi NW 13.8 mph - N/A   Clear
9:15 PM 26.6 °F 14.7 °F 19.4 °F 74% 30.17 in 10.0 mi NW 15.0 mph - N/A   Clear
9:35 PM 28.4 °F 15.8 °F 21.2 °F 74% 30.18 in 10.0 mi NNW 18.4 mph - N/A   Clear
9:55 PM 26.6 °F 15.7 °F 21.2 °F 80% 30.19 in 10.0 mi North 12.7 mph - N/A   Clear
10:35 PM 24.8 °F 10.0 °F 19.4 °F 80% 30.20 in 10.0 mi NNW 21.9 mph 27.6 mph N/A   Clear
10:55 PM 24.8 °F 13.4 °F 17.6 °F 74% 30.21 in 10.0 mi North 12.7 mph 24.2 mph N/A   Clear
11:15 PM 23.0 °F 9.2 °F 17.6 °F 80% 30.20 in 10.0 mi NNW 17.3 mph - N/A   Clear
11:35 PM 23.0 °F 9.6 °F 17.6 °F 80% 30.22 in 10.0 mi NNW 16.1 mph - N/A   Clear
11:55 PM 23.0 °F 10.1 °F 15.8 °F 74% 30.22 in 10.0 mi NNW 15.0 mph - N/A   Clear